Location: Sungai Bunut
(2.6333°N, 113.7333°E)
Time: 08:53:02
(UTC+00:00)

Vanguard 3 - Pass Details

Date: 03 December 2023
Orbit: 508 x 3239 km, 33.3° (Epoch: 21 February)

Event Time Altitude Azimuth Distance (km) Brightness Sun altitude
Exits shadow 22:11:36 - 315° (NW) 2,598 9.2 -1.8°
Rises 22:11:37 0° 315° (NW) 2,593 9.2 -1.8°
Reaches altitude 10° 22:13:38 10° 321° (NW) 1,759 8.4 -1.3°
Maximum altitude 22:17:20 49° 38° (NE) 787 7.3 -0.4°
Drops below altitude 10° 22:22:27 10° 113° (ESE) 2,430 12.1 0.7°
Sets 22:25:42 0° 118° (ESE) 3,737 13.6 1.5°
